Skip Page Navigation
NASA JPL Caltech
NASA Logo - Jet Propulsion Laboratory + View the NASA Portal
+ Center for Near-Earth Object Studies
JPL Home Earth Solar System Stars & Galaxies Technology
JPL Solar System Dynamics
BODIES ORBITS EPHEMERIDES TOOLS PHYSICAL DATA DISCOVERY FAQ SITE MAP
JPL Small-Body Database Browser
Search: [ help ]  
34466 (2000 SN105)
Classification: Main-belt Asteroid          SPK-ID: 2034466
Ephemeris | Orbit Diagram | Orbital Elements | Mission Design | Physical Parameters | Discovery Circumstances | Close-Approach Data ]

[ hide orbit diagram ]

For accurate long-term ephemerides, please instead use our Horizons system.This orbit viewer was implemented using two-body methods, and hence should not be used for determining accurate long-term trajectories (over several years or decades) or planetary encounter circumstances.


[ revert to old Java-based viewer ]

Orbital Elements at Epoch 2459000.5 (2020-May-31.0) TDB
Reference: JPL 21 (heliocentric ecliptic J2000)
 Element Value Uncertainty (1-sigma)   Units 
e .09612633430824316 3.4323e-08  
a 3.020153657392695 2.1133e-08 au
q 2.729837357259902 1.0663e-07 au
i 2.265292424486003 4.0172e-06 deg
node 265.8055294500823 0.00011866 deg
peri 341.3909995799962 0.00012156 deg
M 20.41989383119919 2.5221e-05 deg
tp 2458891.759089584053
(2020-Feb-12.25908958)
0.00013445 TDB
period 1917.087722068825
5.25
2.0122e-05
5.509e-08
d
yr
n .1877848341814563 1.971e-09 deg/d
Q 3.310469957525489 2.3164e-08 au
  Orbit Determination Parameters
   # obs. used (total)      948  
   data-arc span      9906 days (27.12 yr)  
   first obs. used      1993-04-16  
   last obs. used      2020-05-30  
   planetary ephem.      DE431  
   SB-pert. ephem.      SB431-N16  
   condition code      0  
   norm. resid. RMS      .5733  
   source      ORB  
   producer      Otto Matic  
   solution date      2020-Jun-23 20:22:26  

Additional Information
 Earth MOID = 1.71624 au 
 Jupiter MOID = 1.714 au 
 T_jup = 3.238 
[ show covariance matrix ]

Ephemeris | Orbit Diagram | Orbital Elements | Mission Design | Physical Parameters | Discovery Circumstances | Close-Approach Data ]

Physical Parameter Table
Parameter Symbol Value Units Sigma Reference Notes
absolute magnitude H 14.5   n/a MPO474198  
diameter diameter 5.684 km 0.106 urn:nasa:pds:neowise_diameters_albedos::2.0[mainbelt] (http://adsabs.harvard.edu/abs/2011ApJ...741...68M)  
geometric albedo albedo 0.104   0.011 urn:nasa:pds:neowise_diameters_albedos::2.0[mainbelt] (http://adsabs.harvard.edu/abs/2011ApJ...741...68M)  

34466 (2000 SN105)          Discovered 2000-Sep-24 by LINEAR at Socorro
Reference: 20020128/Numbers.arcLast Updated: 2004-04-19

[ hide close-approach data ]
Close-Approach Data   ...sorted by Date/Time (TDB)
Date/Time (TDB) Time Uncertainty
(days_HH:MM)
Body Nominal Distance (au) Minimum Distance (au) Maximum Distance (au) V-relative (km/s) V-infinity (km/s) JD (TDB) Time Uncertainty (minutes) Semi-major axis (km) Semi-minor axis (km) range-LOV angle (deg) N-sigma BP Orbit Ref. Reference Modified
1917-Sep-08 10:06 00:03 Jupiter 1.73497471402687 1.73497402184945 1.73497540620577 2.27651854997198 2.05088460114903 2421479.920777061 3.18666856084182 115.959543466757 12.2034307960366 86.0505444077809 2775459.62719702 T 21 CATAB v2.0f-lin.ifort 2020-Jun-23 20:22:43 2020-Jun-23 20:22
1964-Aug-26 19:58 00:02 Jupiter 1.71218769864872 1.71218733545284 1.71218806184449 2.19512404712184 1.95682543236612 2438634.332138426 1.61900923402457 74.3603542187322 11.9176037596495 -89.171167732217 2853085.52108154 T 21 CATAB v2.0f-lin.ifort 2020-Jun-23 20:22:43 2020-Jun-23 20:22
2011-Aug-13 23:50 < 00:01 Jupiter 1.73370571115463 1.73370528821744 1.73370613409171 2.2814700317178 2.05620566877843 2455787.493376924 0.218984673559579 41.8701783459216 8.03064437854442 -83.8098095521201 2679596.48128035 T 21 CATAB v2.0f-lin.ifort 2020-Jun-23 20:22:43 2020-Jun-23 20:22
2049-Jun-18 13:08 00:01 Jupiter 1.94767340651084 1.94767272585451 1.94767408716695 2.94193669266232 2.79019940274295 2469611.046909784 1.17940271187479 43.6403030145181 23.9544186818175 85.7225034832679 2337934.9779828 T 21 CATAB v2.0f-lin.ifort 2020-Jun-23 20:22:43 2020-Jun-23 20:22
2058-Jul-27 15:49 00:02 Jupiter 1.80690670485073 1.80690593495561 1.80690747474656 2.59157994665135 2.40390263570679 2472937.159095801 1.51931516270458 86.1124969168389 6.47127738683386 -79.2157899101437 2573276.44759023 T 21 CATAB v2.0f-lin.ifort 2020-Jun-23 20:22:43 2020-Jun-23 20:22
2096-Jun-07 01:49 00:03 Jupiter 1.84046113383119 1.84046009304505 1.84046217461732 2.60426759327949 2.42110795473267 2486766.576017344 2.68363319008215 71.3992773347283 21.6595972781428 69.6195079826981 2087621.21455069 T 21 CATAB v2.0f-lin.ifort 2020-Jun-23 20:22:43 2020-Jun-23 20:22
2105-Jul-13 03:16 00:03 Jupiter 1.91067541126501 1.9106739829747 1.91067683955868 3.07882115238834 2.9312998213144 2490088.636107256 2.94139826703708 155.623255561255 13.5952217843456 -72.850407027978 2589619.83127123 T 21 CATAB v2.0f-lin.ifort 2020-Jun-23 20:22:43 2020-Jun-23 20:22
2143-May-26 04:08 00:04 Jupiter 1.75812291686626 1.75812193600789 1.75812389772702 2.36007771560956 2.14625571272992 2503919.672405077 4.15679953664366 135.472866760547 13.0309653418418 81.4886152333777 2709158.62910321 T 21 CATAB v2.0f-lin.ifort 2020-Jun-23 20:22:43 2020-Jun-23 20:22
2190-May-14 02:52 00:06 Jupiter 1.71507315169858 1.71507272305712 1.71507358034305 2.23673673037732 2.00380936532269 2521074.619638738 5.64799289373295 209.982414322567 11.8290062045976 89.0489503823585 2915144.85694549 T 21 CATAB v2.0f-lin.ifort 2020-Jun-23 20:22:43 2020-Jun-23 20:22

Alternate Designations
 2000 SN105 = 1998 FY39 
Ephemeris | Orbit Diagram | Orbital Elements | Mission Design | Physical Parameters | Discovery Circumstances | Close-Approach Data ]
ABOUT SSD CREDITS/AWARDS PRIVACY/COPYRIGHT GLOSSARY LINKS
FirstGov 2020-Oct-24 15:24 UT
(server date/time)  
NASA Home Page
Site Manager:   Ryan S. Park
Webmaster  Alan B. Chamberlin